User: anonymous   Login
Location: *
(33.8649°S, 62.1526°E)
Time: 08:08:02
(UTC+00:00)
Language:

Cosmos 1674 Rocket - Orbit

View from above orbital plane
View from above orbital plane
View from above satellite
View from above satellite

Ground track
Ground track

The orbit data is extracted from the following two-line orbital elements,

1 15945U 85069B   21103.16128821  .00000050  00000-0  31506-5 0  9993
2 15945  82.5254 265.5368 0019602 359.2565   0.8617 14.84072723928065
Epoch (UTC): 13 April 2021 03:52:15
Eccentricity: 0.0019602
inclination: 82.5254°
perigee height: 603 km
apogee height: 630 km
right ascension of ascending node: 265.5368°
argument of perigee: 359.2565°
revolutions per day: 14.84072723
mean anomaly at epoch: 0.8617°
orbit number at epoch: 92806

The dashed part of the orbit path shows where the satellite is in the earth's shadow,  

DLR